EDT,Max TemperatureF,Mean TemperatureF,Min TemperatureF,Max Dew PointF,MeanDew PointF,Min DewpointF,Max Humidity, Mean Humidity, Min Humidity, Max Sea Level PressureIn, Mean Sea Level PressureIn, Min Sea Level PressureIn, Max VisibilityMiles, Mean VisibilityMiles, Min VisibilityMiles, Max Wind SpeedMPH, Mean Wind SpeedMPH, Max Gust SpeedMPH,PrecipitationIn, CloudCover, Events, WindDirDegrees
2013-9-1,73,64,55,67,58,54,100,91,71,29.86,29.79,29.68,10,5,0,16,2,28,0.20,4,Fog-Rain,223
2013-9-2,59,57,55,54,51,47,88,81,69,29.92,29.85,29.78,10,10,4,17,13,24,0.00,8,Rain,304
2013-9-3,71,60,50,55,51,45,93,69,41,30.00,29.96,29.92,10,10,10,15,9,23,0.00,2,,276
2013-9-4,69,58,46,59,51,39,84,68,44,30.17,30.03,29.90,10,10,10,15,8,17,0.00,3,,318
2013-9-5,64,50,37,45,40,36,97,71,39,30.33,30.27,30.18,10,10,10,9,4,,0.00,0,,314
2013-9-6,75,56,39,58,48,38,97,70,47,30.25,30.13,29.96,10,10,10,13,2,21,0.00,1,,211
2013-9-7,80,72,66,68,65,55,90,80,61,30.04,29.90,29.86,10,9,1,13,8,26,0.39,7,Rain-Thunderstorm,284
2013-9-8,71,58,46,55,49,44,97,74,42,30.18,30.12,30.06,10,10,5,13,4,,0.00,1,,61
2013-9-9,73,62,51,66,58,49,97,83,68,30.07,29.93,29.73,10,10,10,9,2,,0.00,4,,189
2013-9-10,84,75,66,70,66,64,96,79,56,29.95,29.84,29.72,10,8,1,18,6,28,0.97,3,Rain-Thunderstorm,268
2013-9-11,78,70,64,65,64,62,97,84,64,29.97,29.94,29.89,10,9,2,12,6,17,0.39,4,Rain-Thunderstorm,234
2013-9-12,66,58,51,62,52,42,93,76,54,30.07,29.96,29.89,10,10,7,23,11,32,0.00,6,Rain,314
2013-9-13,59,49,37,46,38,35,96,69,42,30.20,30.15,30.07,10,10,9,14,10,22,0.02,4,Rain,351
2013-9-14,66,48,32,49,43,30,96,76,50,30.17,30.10,30.00,10,10,10,18,3,25,0.00,2,,223
2013-9-15,60,56,48,56,53,45,94,85,72,30.22,30.04,29.98,10,10,4,17,5,21,0.17,7,Rain,283
2013-9-16,57,47,35,45,36,29,93,66,34,30.44,30.39,30.23,10,10,7,13,7,,0.00,4,Rain,30
2013-9-17,66,47,28,48,37,27,97,75,38,30.44,30.35,30.20,10,10,8,9,2,,0.00,0,,179
2013-9-18,73,54,37,58,47,35,97,72,48,30.19,30.07,29.96,10,10,10,9,2,,0.00,4,,176
2013-9-19,81,71,61,68,63,55,93,79,61,29.95,29.88,29.77,10,10,7,10,4,,0.02,4,Rain-Thunderstorm,166
2013-9-20,71,64,57,66,63,54,100,90,82,29.78,29.70,29.65,10,8,2,14,9,22,0.40,7,Rain-Thunderstorm,223
2013-9-21,57,52,46,53,46,39,93,78,57,29.92,29.79,29.73,10,10,8,22,10,29,0.03,7,Rain,322
2013-9-22,54,46,35,41,38,33,96,74,49,30.14,30.05,29.93,10,10,10,10,6,,0.00,5,,345
2013-9-23,62,45,28,45,37,28,97,77,46,30.24,30.19,30.14,10,10,10,9,2,,0.00,0,,114
2013-9-24,66,48,30,49,39,28,100,85,45,30.20,30.14,30.05,10,8,0,10,1,,0.00,1,Fog,93
2013-9-25,69,50,33,49,39,34,100,82,35,30.09,30.06,30.03,10,6,0,7,1,,0.00,2,Fog,95
2013-9-26,73,52,30,50,38,30,100,85,33,30.17,30.13,30.06,10,6,0,7,1,,0.00,3,Fog,114
2013-9-27,78,56,35,56,46,34,100,78,37,30.24,30.19,30.15,10,9,2,8,1,,0.00,0,,127
2013-9-28,78,59,41,54,47,41,100,80,37,30.18,30.10,29.85,10,6,0,14,2,21,0.00,1,Fog,157
2013-9-29,70,56,41,61,50,40,97,76,46,30.03,29.96,29.84,10,9,4,14,7,22,0.15,3,Rain,279
2013-9-30,70,50,32,50,39,30,100,84,33,30.03,29.98,29.87,10,6,0,8,1,,0.00,3,Fog,194